User: anonymous   Login
Location: Diebersbach
(48.5163°N, 8.0558°E)
Time: 05:20:57
(UTC+00:00)
Language:

Cosmos 1782 - Orbit

View from above orbital plane
View from above orbital plane
View from above satellite
View from above satellite

Ground track
Ground track

The orbit data is extracted from the following two-line orbital elements,

1 16986U 86074A   21263.39389818  .00000426  00000-0  25924-4 0  9996
2 16986  82.5047  46.1106 0014084  62.6405 297.6255 15.07650482884066
Epoch (UTC): 20 September 2021 09:27:12
Eccentricity: 0.0014084
inclination: 82.5047°
perigee height: 533 km
apogee height: 553 km
right ascension of ascending node: 46.1106°
argument of perigee: 62.6405°
revolutions per day: 15.07650482
mean anomaly at epoch: 297.6255°
orbit number at epoch: 88406

The dashed part of the orbit path shows where the satellite is in the earth's shadow,  

DLR